RH
35 29 21 23 33 44 46 41 35 31 28 27 26 26 25 24 24 23 23 24 26 25 25 23 21 19 17 15 13 13 13 13 13 13 13 14 14 14 14 14 14 13 12 11 10 7 7 6 7 10 32 63 66 65 73 72 71 71 68 63 63 67 65 60 58 56 57 61 61 61 61 59 60 64 66 71 67 46 31 23 13 6 4 6 5
39 35 27 24 31 44 49 45 38 32 29 27 26 26 26 25 23 23 23 24 25 25 24 23 22 20 18 16 14 14 13 13 13 13 13 14 14 14 14 14 14 13 13 12 11 8 7 6 7 10 22 48 62 66 73 71 65 63 63 62 62 60 60 62 56 52 56 59 59 59 59 60 61 63 57 51 38 13 5 6 3 4 4 4 4
35 35 35 31 32 42 51 49 41 34 31 29 26 26 26 25 23 23 23 24 24 24 23 23 21 19 18 17 15 14 14 14 13 13 13 14 14 14 14 14 14 14 14 13 12 10 8 7 7 10 16 34 56 66 65 63 60 60 64 66 63 54 58 64 60 56 56 56 57 59 60 53 41 36 27 15 9 3 4 4 3 4 3 4 4
31 31 34 36 35 40 51 53 45 37 32 29 27 26 27 26 24 23 23 24 23 23 22 21 21 19 18 17 16 15 14 14 13 13 13 14 14 15 15 15 15 15 15 14 13 12 10 8 7 9 14 23 39 53 55 56 57 60 61 55 50 52 59 61 61 62 59 57 55 53 46 28 12 9 7 5 6 5 6 4 5 5 4 5 4
32 28 30 35 37 40 50 56 50 41 34 30 28 27 26 27 26 24 24 24 23 23 21 20 20 18 18 18 18 16 15 15 14 14 14 14 14 15 15 15 15 16 16 15 15 14 12 10 8 9 14 23 31 42 49 53 54 55 55 50 51 58 63 63 63 59 49 40 34 28 19 10 7 8 8 9 9 8 8 8 8 7 8 8 8
35 30 31 35 41 45 51 57 55 45 36 31 29 28 27 27 27 26 24 24 23 22 20 18 18 18 18 19 18 17 16 15 14 14 14 14 15 15 15 16 16 16 17 17 16 15 14 12 10 9 13 22 30 39 47 52 55 58 60 61 65 65 59 55 49 36 22 14 12 11 10 10 11 11 11 11 10 10 9 9 9 8 8 7 8
38 36 36 37 44 52 55 57 56 48 39 34 30 29 27 28 28 27 25 24 24 22 20 18 17 17 18 19 19 18 17 16 15 15 14 15 15 16 16 16 16 17 18 18 17 16 16 15 12 10 11 17 23 27 31 36 41 50 60 64 63 55 39 28 21 13 9 9 10 9 10 10 9 9 8 8 7 6 6 5 5 5 4 4 4
42 41 40 40 45 54 61 60 57 53 44 37 32 29 28 28 28 27 26 25 25 23 20 17 16 17 17 18 19 18 17 16 15 15 15 15 15 16 17 17 17 18 19 19 18 18 17 17 15 12 10 10 14 15 15 18 24 33 42 40 35 27 15 10 8 7 8 8 7 6 6 5 5 5 5 5 4 4 5 5 5 5 5 6 6
50 48 46 44 45 53 64 64 59 57 50 42 35 31 29 29 28 28 27 26 26 24 21 17 15 16 17 17 18 18 18 17 16 16 15 15 16 16 17 17 17 18 19 19 19 19 19 18 17 15 12 9 8 8 8 9 13 16 17 12 10 8 5 5 5 4 5 4 4 5 5 5 6 6 7 8 8 9 9 10 10 10 10 11 12
53 59 56 49 47 50 61 65 60 58 54 47 40 34 30 29 29 28 28 28 27 25 22 18 15 15 16 16 17 17 17 17 16 16 16 16 16 17 18 18 18 19 20 20 19 20 20 19 19 18 16 13 9 7 6 6 6 6 5 5 5 5 5 5 6 6 7 8 8 9 10 11 12 13 14 14 14 15 15 15 16 16 16 16 17
46 55 59 57 52 49 54 61 59 56 55 50 43 37 33 30 29 29 29 29 28 26 23 19 15 14 15 16 16 17 17 17 17 16 16 16 17 18 19 19 18 19 20 20 20 20 21 20 20 19 18 17 14 12 10 8 7 6 6 7 8 9 10 10 11 12 13 14 15 16 17 18 18 19 19 20 20 20 20 20 20 21 20 21 21
41 43 51 58 58 52 50 54 56 54 54 52 47 41 36 32 30 30 29 29 28 26 24 20 16 14 14 15 15 16 17 17 17 17 17 17 17 19 20 20 19 19 20 21 21 21 21 21 21 20 20 19 18 16 15 13 12 12 12 13 14 15 15 16 17 18 18 19 20 21 21 22 22 22 22 22 22 23 23 23 23 23 23 23 23
47 41 44 54 60 58 50 51 55 54 55 54 50 45 40 35 32 30 29 28 27 26 23 20 17 15 14 14 15 15 17 17 18 18 17 18 17 19 21 21 21 20 21 22 22 21 21 21 22 21 21 21 20 19 18 17 17 17 18 18 18 19 19 20 21 21 22 22 23 23 23 23 23 23 23 23 23 24 23 24 24 24 24 24 24
52 42 39 49 59 60 54 53 57 58 57 55 52 47 43 37 32 30 28 27 27 26 24 21 19 16 15 13 14 14 16 17 18 18 18 18 18 19 21 22 22 22 22 23 24 23 22 22 22 22 22 22 22 21 20 20 20 20 20 20 21 21 22 22 22 23 23 24 24 23 24 24 24 24 24 24 24 24 24 24 24 24 24 24 24
54 44 41 50 58 61 57 56 59 59 58 55 52 48 44 38 33 30 30 29 28 27 26 23 21 18 16 14 14 14 15 17 18 19 18 18 18 19 21 23 22 23 23 24 25 25 24 23 22 22 22 22 22 22 22 22 22 22 21 21 22 22 22 22 23 23 23 23 23 23 24 24 23 24 23 23 23 23 23 23 23 23 23 23 23
59 49 44 49 54 55 54 55 57 57 56 54 52 49 46 40 35 34 32 32 30 29 28 25 22 20 17 14 13 14 15 17 18 19 19 19 19 19 21 23 23 23 24 25 26 26 26 25 23 23 23 22 22 23 22 22 23 22 22 22 22 22 22 23 23 23 23 23 23 23 23 23 23 23 23 23 24 24 24 24 24 24 24 24 24
57 52 48 48 49 51 52 54 54 53 53 52 51 48 45 41 38 37 35 34 32 31 29 27 24 22 19 16 14 13 14 16 18 19 19 19 19 20 20 22 23 23 24 26 26 26 26 26 25 25 25 23 22 23 23 24 24 23 22 22 22 22 23 23 23 23 23 23 23 24 24 24 24 24 24 24 24 24 24 24 25 25 25 25 25
49 48 50 53 54 57 57 56 53 50 50 49 48 46 44 42 40 39 37 36 36 34 32 29 26 23 20 17 15 13 14 15 17 19 20 20 20 21 21 21 23 23 24 26 26 27 26 26 26 25 25 24 23 23 24 25 25 24 23 23 23 23 23 23 23 24 24 24 24 25 25 25 25 25 25 25 25 25 25 25 26 26 26 26 26
45 44 47 53 58 59 57 56 54 50 49 49 48 47 46 45 44 42 41 40 39 37 33 31 27 24 22 19 17 14 13 14 16 18 19 20 21 21 22 22 23 24 24 26 27 27 27 26 26 26 26 25 24 23 23 24 24 24 24 23 24 23 24 24 24 24 24 25 25 26 26 27 27 27 27 26 27 27 27 27 27 27 27 27 26
48 47 46 49 54 57 56 56 57 55 53 52 51 50 50 49 48 46 44 43 40 37 34 31 29 26 23 21 19 15 13 13 14 17 19 20 21 22 22 23 23 24 25 26 27 27 27 27 27 26 25 25 25 25 24 24 24 25 25 25 25 25 24 24 24 25 25 26 26 27 27 27 28 28 28 28 28 28 28 28 28 28 28 27 27
55 52 50 50 54 56 56 57 58 58 56 54 53 53 52 51 50 49 47 44 41 39 36 34 31 29 27 25 23 18 14 13 13 15 17 19 21 22 22 23 24 25 26 27 27 28 28 27 28 27 26 26 25 26 25 24 25 25 26 25 26 26 25 25 25 25 25 26 26 27 27 28 28 28 28 28 28 28 28 28 28 28 28 28 27
59 56 53 52 56 58 58 58 58 57 57 56 56 55 55 54 52 51 49 46 44 41 39 37 34 33 31 28 25 21 17 14 12 14 17 18 20 22 23 24 24 24 26 27 28 28 28 28 28 28 27 26 26 27 27 26 25 25 25 25 25 25 25 24 25 25 25 26 26 26 27 27 27 28 28 28 28 28 28 28 28 28 28 28 28
59 59 58 57 60 60 58 58 57 57 57 58 59 59 58 57 55 52 50 48 45 43 42 40 38 36 33 29 26 23 21 17 12 13 17 19 20 22 23 24 24 25 26 27 28 28 29 29 28 28 27 27 27 28 29 29 27 26 26 26 26 25 26 25 25 26 26 27 27 26 26 27 27 27 27 27 27 27 27 28 28 28 28 28 29
56 63 64 62 60 56 57 59 59 60 60 61 62 63 62 59 56 53 51 49 46 44 43 42 40 38 35 32 28 26 25 21 16 14 16 19 21 22 23 24 24 25 26 27 28 28 29 29 29 29 28 28 28 28 29 30 29 28 27 27 28 27 27 27 26 26 27 28 28 28 27 27 28 28 27 27 27 27 27 27 28 28 29 29 30
50 58 62 61 57 53 58 66 67 65 63 63 64 65 65 61 57 54 51 50 47 46 44 44 43 41 41 39 36 35 33 28 25 21 18 21 22 23 25 25 25 26 26 27 28 28 29 29 29 29 28 28 28 28 28 30 31 30 30 30 29 28 28 28 29 29 28 28 29 29 28 28 28 27 27 27 27 27 27 27 28 28 29 30 30
49 48 55 52 51 54 59 64 66 64 60 62 64 65 68 67 62 57 56 56 55 54 52 52 52 51 50 48 46 47 43 37 37 35 32 30 27 26 27 27 26 27 27 28 28 29 29 29 30 29 29 29 28 28 28 30 32 31 32 32 31 31 30 32 37 36 31 27 29 30 30 30 29 28 26 25 26 26 26 27 28 28 29 30 31
52 43 48 43 41 48 54 54 56 58 59 61 62 64 69 74 74 73 73 73 72 71 68 65 63 61 58 55 52 51 48 44 44 43 40 36 31 28 29 30 29 28 28 28 29 29 29 29 29 29 29 29 28 28 28 29 31 32 32 32 32 31 31 34 37 37 32 28 28 29 29 29 30 30 29 27 26 25 26 27 27 28 29 29 30
55 45 44 41 38 42 47 46 48 50 54 58 58 58 62 70 77 79 79 77 76 74 72 68 65 63 61 59 55 53 54 53 49 46 42 38 35 32 31 34 33 31 29 29 29 29 30 30 29 29 29 28 28 28 28 29 30 32 32 33 32 31 31 31 32 36 41 44 46 42 35 36 38 37 35 31 29 27 27 27 28 29 30 31 31
58 51 46 44 41 41 44 43 40 40 48 57 57 57 57 62 70 74 75 73 72 69 66 65 64 63 62 62 60 60 63 64 59 52 47 42 41 38 34 37 38 35 32 29 29 30 30 30 30 29 29 29 28 28 29 29 29 29 30 31 31 30 29 28 34 46 56 64 70 67 55 51 53 52 48 39 33 32 31 32 32 33 34 35 34
63 58 52 48 45 44 45 44 40 39 49 58 60 60 59 61 65 70 74 74 74 71 67 65 65 66 67 69 68 68 72 73 67 58 52 49 48 45 39 38 39 39 36 32 30 30 30 30 30 30 29 29 29 29 29 28 28 28 28 28 29 29 28 33 47 59 66 74 78 78 73 65 61 61 56 45 39 38 37 37 36 36 37 36 35
66 64 60 58 55 53 51 47 44 45 51 56 59 61 61 62 64 67 70 71 72 71 68 66 66 69 72 74 73 72 74 76 73 65 57 57 57 55 51 47 44 42 38 35 33 31 30 30 30 30 30 30 29 29 28 29 29 28 28 28 28 28 33 46 60 65 71 81 81 77 76 72 65 60 54 46 43 42 41 42 41 40 39 38 36
64 67 64 62 61 60 56 48 45 47 52 55 56 58 61 64 64 66 68 69 69 67 67 65 66 69 70 71 72 72 73 76 77 73 66 66 67 66 68 67 60 51 41 35 33 32 31 30 30 30 30 30 30 29 29 29 28 28 28 28 29 33 45 58 65 70 77 83 82 78 74 71 66 59 53 50 48 49 49 49 48 46 44 41 37
63 64 59 61 63 60 53 44 39 40 44 47 49 52 59 63 64 67 69 68 68 66 65 64 64 65 64 65 67 69 72 77 80 79 75 74 74 73 76 77 73 67 54 40 33 32 32 31 30 30 31 30 30 29 29 29 28 29 28 30 38 47 58 65 68 77 82 82 82 80 74 71 69 65 61 59 57 56 54 52 49 47 45 43 40
65 62 58 59 62 58 49 42 38 33 33 37 41 47 55 62 64 66 68 68 67 66 65 63 63 64 64 65 65 67 72 79 83 82 80 78 77 76 77 77 78 77 70 55 39 33 33 33 32 30 31 30 30 29 29 29 29 29 33 43 56 63 68 72 77 82 83 82 82 79 75 73 73 70 67 64 61 58 55 53 50 49 48 45 41
64 63 59 55 57 57 52 47 39 29 28 34 42 50 55 59 64 66 67 66 65 65 65 65 66 66 67 68 68 69 73 80 86 86 84 83 82 80 79 79 79 79 79 71 57 44 37 33 32 32 32 32 31 30 29 30 32 36 47 60 66 67 72 78 83 85 83 82 81 78 75 74 71 68 64 61 59 58 56 56 53 51 47 44 46
63 59 54 51 50 51 54 52 40 29 28 33 44 52 50 52 59 65 66 65 65 66 67 69 69 69 69 70 71 71 74 80 86 88 87 86 86 84 83 81 79 80 79 77 70 59 44 34 34 34 34 35 33 31 34 39 44 52 62 68 68 71 78 83 86 86 83 81 79 77 74 70 65 62 61 59 58 58 58 57 53 50 50 57 62
61 54 49 48 46 43 49 55 44 33 28 30 42 49 47 48 54 60 63 65 66 68 71 73 74 73 72 72 73 73 76 81 85 86 86 86 87 87 88 85 81 81 81 77 72 67 58 50 45 38 35 36 34 40 51 58 62 66 70 72 72 78 85 86 88 87 84 81 77 74 70 65 61 60 62 62 61 62 63 60 56 59 64 66 62
55 51 51 50 47 43 47 54 43 30 28 31 40 45 44 47 51 56 60 64 67 70 73 73 74 75 74 73 75 76 78 81 84 84 84 86 87 89 91 89 84 85 86 83 78 77 77 72 57 45 43 45 48 59 69 71 71 72 75 76 77 81 87 88 87 86 84 81 76 71 69 68 67 66 68 69 70 70 69 66 66 67 64 57 51
52 53 57 55 50 45 49 55 40 27 30 33 34 36 37 39 44 51 56 60 64 67 67 67 68 71 72 73 74 76 79 82 85 85 86 88 90 92 93 93 89 88 90 88 86 86 87 81 64 56 60 63 67 72 72 70 69 73 77 79 80 83 87 87 85 83 82 80 76 73 72 73 74 74 75 75 74 73 72 72 69 62 54 50 50
52 56 59 57 52 43 46 50 36 27 31 30 28 29 29 31 37 46 52 58 64 65 62 61 65 71 73 74 74 75 78 82 84 86 88 88 90 93 96 97 92 89 90 88 88 86 83 82 72 67 73 74 73 73 70 68 68 72 77 79 81 83 84 83 81 81 79 80 80 77 75 74 75 78 78 77 75 74 73 69 62 55 53 55 55
46 52 54 54 52 45 43 40 30 29 30 27 26 26 26 29 35 43 51 59 67 68 64 62 70 78 79 77 76 77 78 81 84 86 87 88 91 90 90 93 92 90 91 89 91 87 79 81 77 72 75 73 72 71 69 71 73 75 77 79 80 80 82 82 83 84 80 81 83 79 77 77 78 79 77 74 71 70 69 65 59 55 55 59 60
39 45 50 49 46 45 42 34 27 29 30 26 25 25 25 27 32 40 44 48 54 60 61 63 73 80 78 76 76 79 80 82 85 86 87 91 94 93 91 92 91 92 94 92 93 89 81 80 78 73 74 73 72 72 71 74 79 80 80 83 83 81 83 86 87 86 82 81 81 79 80 81 82 79 71 69 70 72 71 66 61 58 59 63 65
34 39 47 46 41 41 40 34 28 25 27 29 28 28 28 27 29 33 34 34 38 46 52 58 68 74 74 73 75 79 79 80 85 88 89 90 92 96 98 95 92 93 95 94 92 88 82 78 75 74 75 74 74 74 75 76 79 81 81 82 83 83 86 88 85 84 82 82 82 82 83 82 82 78 72 71 73 75 71 66 63 63 65 64 63
35 38 44 44 42 42 40 37 30 24 30 37 35 31 29 27 29 29 27 28 31 37 43 49 59 66 69 70 70 73 78 82 85 87 88 86 84 91 94 91 91 92 94 93 90 88 82 77 75 75 74 73 75 77 79 78 78 79 78 79 82 82 83 85 87 87 85 82 81 82 83 83 83 78 78 79 73 71 68 66 67 66 64 61 60
45 48 48 46 43 42 42 42 34 29 40 48 40 30 26 24 27 30 28 27 29 33 39 46 56 64 68 70 69 70 78 83 81 85 90 85 80 85 87 87 90 91 91 89 88 87 81 76 75 74 72 73 77 81 81 81 80 78 77 83 87 84 81 83 88 90 84 79 77 77 79 84 86 81 82 82 75 70 67 66 65 62 60 59 59
52 53 50 48 45 44 45 46 38 31 41 52 44 32 26 24 27 32 31 29 32 36 44 53 62 69 71 73 73 75 80 82 80 85 89 84 81 84 85 86 89 89 89 88 86 83 78 76 75 73 73 75 78 79 79 79 78 76 76 81 86 86 83 83 88 88 83 79 79 79 80 85 86 82 82 81 75 70 66 63 62 60 59 57 55
53 56 54 51 49 49 50 49 42 35 38 49 49 38 30 28 31 36 35 32 33 38 46 54 61 67 71 73 74 78 84 84 84 87 83 80 81 84 86 87 88 88 88 88 84 79 77 77 77 75 76 77 78 76 75 74 72 73 75 78 81 83 82 82 85 88 85 82 82 82 83 85 83 80 82 82 76 70 66 64 63 59 55 53 50
53 57 57 55 55 57 56 53 46 40 40 47 51 44 34 32 35 38 37 35 37 42 47 51 55 61 67 72 74 79 85 85 86 85 79 78 81 83 85 86 86 84 83 84 82 78 76 77 78 78 77 76 75 74 74 73 71 74 77 78 82 84 84 83 84 87 89 88 87 83 77 77 79 79 81 81 75 70 69 65 61 56 51 49 44
50 57 63 64 66 65 62 56 48 46 49 53 56 50 39 37 39 40 40 41 43 46 50 51 54 59 64 71 75 79 85 88 87 84 78 78 80 81 83 83 82 81 80 81 80 76 75 77 79 78 76 75 73 73 73 74 75 78 78 78 81 86 87 86 83 83 85 86 89 86 77 74 77 79 80 78 72 71 69 62 55 51 49 46 40
60 70 73 68 64 64 67 64 58 60 62 64 68 60 46 40 41 41 38 41 47 49 51 54 58 62 63 70 75 77 83 87 85 82 78 76 78 77 77 78 78 79 80 78 77 75 76 80 78 74 74 74 72 72 73 74 76 76 76 76 79 84 86 85 80 76 75 75 80 84 82 82 84 84 82 76 71 70 63 55 51 50 48 43 37
73 75 68 61 58 62 71 72 68 69 68 69 70 62 54 47 42 38 37 45 56 58 58 60 63 65 65 69 74 76 79 84 82 78 75 74 74 70 71 75 76 77 78 77 76 76 78 79 75 70 72 74 73 72 71 73 74 72 72 74 78 81 84 86 82 78 75 72 75 82 83 87 90 87 80 74 71 66 57 51 50 48 46 41 37
Wind_Speed
8 8 9 13 14 16 17 17 18 17 17 16 16 14 13 12 11 10 9 7 5 3 2 2 1 1 1 3 5 6 7 7 7 7 7 7 8 8 9 10 11 12 12 13 13 14 15 14 14 14 16 17 15 15 14 13 13 13 12 11 11 11 11 11 11 10 10 10 10 10 10 10 10 10 10 10 9 8 8 9 10 12 12 13 13
9 8 9 13 15 17 18 19 19 18 18 17 16 15 14 13 12 11 9 8 6 5 4 3 3 3 2 3 4 6 6 7 7 6 6 6 7 8 8 9 11 12 13 14 15 15 16 16 16 15 15 16 15 14 14 13 12 13 12 11 12 12 12 11 9 9 9 10 11 11 11 11 11 10 9 9 8 8 9 10 13 14 13 14 14
10 9 9 12 16 18 19 20 19 19 18 17 17 16 14 13 12 11 10 9 8 6 6 5 5 4 4 4 4 5 6 6 6 5 5 5 6 8 8 9 10 12 13 14 15 16 17 17 17 17 16 16 15 14 13 13 12 12 12 12 12 12 12 10 10 10 10 10 11 11 11 11 10 10 9 9 9 10 12 13 14 15 14 15 15
11 9 9 12 15 18 20 20 20 19 19 18 17 16 15 13 13 12 11 10 9 8 7 7 7 6 5 4 3 4 5 5 5 5 4 5 6 7 8 8 10 12 13 14 15 17 17 18 19 19 18 16 15 14 13 13 13 11 11 11 11 11 11 10 11 12 11 11 11 11 11 10 10 11 11 11 12 13 14 15 16 16 16 16 16
12 10 10 11 14 18 20 20 20 19 19 18 17 16 15 14 13 12 12 11 10 9 9 9 8 7 6 5 4 4 5 4 5 5 4 5 5 7 7 8 9 11 13 14 15 17 18 19 20 19 18 17 16 15 14 14 13 12 12 12 12 12 12 11 11 11 11 11 12 12 12 12 12 12 13 13 14 14 15 16 16 16 17 17 17
13 12 10 11 13 16 19 21 20 19 18 18 17 17 16 15 14 13 13 12 11 10 10 10 9 8 7 5 4 4 4 4 5 5 5 5 5 6 6 7 8 10 12 13 15 17 18 20 20 20 19 18 17 16 15 14 13 13 13 13 13 13 12 11 11 10 11 12 12 13 13 14 14 14 14 14 15 16 16 17 17 18 19 19 19
13 11 10 11 12 15 18 20 20 19 18 18 17 17 16 15 15 14 14 13 12 11 10 10 10 9 7 6 5 5 5 5 5 5 5 5 5 6 6 6 8 10 11 12 14 16 18 19 20 20 19 18 17 16 15 14 13 13 13 13 12 12 11 11 11 12 13 13 14 15 16 16 17 17 17 18 19 20 21 21 22 23 23 23 24
12 11 10 11 12 14 16 19 19 19 18 18 17 17 17 16 16 16 15 14 13 12 11 11 10 9 8 7 6 6 6 6 6 5 5 5 5 6 5 5 7 8 10 11 13 14 16 18 19 20 20 19 18 18 16 15 14 14 14 13 13 13 13 13 15 16 17 18 19 20 21 21 21 21 22 23 23 24 24 25 25 25 25 25 25
12 12 11 11 12 14 15 17 19 19 18 17 17 17 18 18 18 17 16 15 14 12 12 11 11 10 9 8 8 7 7 7 7 6 6 6 6 6 5 5 6 7 9 10 11 13 14 16 18 20 20 19 19 19 18 17 17 16 17 17 17 17 18 19 20 21 22 22 23 23 24 24 24 24 24 25 25 25 25 25 25 24 24 25 25
13 12 12 12 12 13 15 17 18 18 18 17 17 18 19 19 19 18 17 15 14 13 12 12 11 11 10 9 9 9 9 8 8 7 7 7 6 6 5 5 5 6 7 9 10 11 12 14 17 19 19 19 19 19 19 19 19 19 19 20 21 21 21 22 22 23 23 23 24 24 24 24 24 24 24 24 24 24 24 24 24 24 24 25 25
15 14 14 14 14 14 15 16 17 18 17 18 18 19 20 20 19 18 17 16 15 14 13 12 12 12 11 10 10 10 10 9 9 9 8 8 7 7 6 5 5 5 6 8 9 9 10 12 14 17 18 19 19 19 18 18 19 20 20 21 21 21 21 21 22 22 22 23 23 24 24 24 24 24 24 24 24 24 24 24 24 24 24 24 24
15 15 15 16 16 15 16 17 18 18 18 18 18 19 20 19 19 18 18 17 16 15 14 13 13 12 12 12 11 11 11 10 10 10 9 9 8 8 7 5 5 5 5 7 8 8 8 10 12 15 17 18 18 18 17 17 18 20 20 20 20 20 20 20 21 21 22 23 23 23 23 23 23 23 23 23 24 23 23 23 23 23 22 22 22
13 14 15 17 18 17 17 18 18 18 18 18 18 19 19 19 18 18 18 18 17 16 15 14 14 13 13 13 13 12 12 12 12 11 11 10 10 10 9 7 6 5 5 6 7 7 6 8 10 12 15 17 17 17 16 16 17 18 19 19 19 19 19 20 21 21 22 23 23 22 22 22 22 22 22 22 22 21 21 21 21 20 20 20 20
12 12 13 16 18 18 18 19 19 19 18 18 18 18 18 18 18 19 19 18 17 16 15 14 14 14 14 14 14 14 14 14 13 13 12 11 11 11 10 9 7 6 6 6 7 6 6 6 8 10 13 15 16 16 15 16 17 17 17 17 18 18 18 19 19 20 21 21 21 20 20 19 19 19 19 19 19 19 18 18 18 18 18 18 18
11 11 11 14 17 18 18 18 19 19 18 17 17 17 17 18 18 18 18 18 17 16 15 15 15 16 16 16 15 15 15 15 15 14 13 13 12 12 12 10 9 8 7 7 7 6 6 5 6 9 11 12 14 15 14 15 16 16 16 16 16 16 16 17 17 18 18 19 19 18 17 17 17 17 17 17 17 17 16 16 16 16 16 16 16
11 10 10 12 14 16 16 17 18 17 16 16 15 16 16 17 17 18 18 17 16 16 16 17 17 17 17 17 17 17 17 17 17 15 14 13 13 13 13 12 11 10 9 8 8 7 7 6 6 7 9 11 13 14 14 14 14 14 15 14 14 14 14 15 15 15 16 16 16 15 15 14 14 14 15 15 15 15 14 14 14 14 14 14 13
10 10 9 10 11 13 14 15 16 15 15 14 14 15 15 16 17 17 17 16 16 16 17 18 18 18 18 18 17 18 19 19 18 17 16 15 14 14 14 13 12 11 10 9 9 9 8 7 6 7 8 10 12 13 13 12 11 11 12 12 12 12 12 12 13 13 14 14 14 13 13 12 12 12 12 12 12 12 12 12 12 11 11 11 11
9 10 10 9 10 11 13 13 13 13 13 13 13 14 14 15 16 16 16 16 16 17 18 18 19 19 19 18 18 19 20 20 19 19 17 16 16 15 15 14 14 13 12 11 11 10 10 9 8 7 7 9 11 13 12 11 10 10 10 10 10 10 10 11 11 11 11 12 12 11 11 10 10 9 9 9 9 9 9 9 9 9 9 9 9
11 10 10 10 10 11 12 11 9 9 10 10 11 11 13 14 14 15 15 16 17 17 18 18 19 19 19 19 19 20 21 21 21 20 19 17 17 17 16 16 15 14 13 13 12 12 11 10 9 9 8 9 10 11 11 10 9 9 9 8 8 8 8 9 9 9 9 9 9 9 9 8 7 7 7 7 7 7 7 7 7 7 7 7 8
12 11 10 11 12 12 11 9 8 7 7 7 8 9 11 12 13 14 15 16 17 17 17 18 19 19 19 19 19 20 21 21 21 21 20 19 19 18 17 17 16 16 15 14 14 13 13 12 11 11 10 9 9 10 10 9 9 9 9 8 7 6 6 6 7 6 6 7 6 6 6 6 5 5 4 4 4 4 4 5 5 5 6 6 7
12 11 11 12 12 11 9 7 6 6 6 7 8 10 11 12 13 14 15 16 17 17 18 18 18 18 19 19 20 20 20 20 20 21 21 20 20 20 19 19 18 17 17 16 15 15 14 13 13 12 11 10 10 10 9 9 9 9 9 8 7 6 6 5 5 4 4 4 4 3 3 3 3 2 2 2 2 2 3 4 4 5 5 6 7
9 9 10 11 9 8 7 7 7 7 7 8 9 11 12 13 13 14 15 16 16 17 17 18 18 18 19 19 19 19 18 19 20 21 21 21 21 21 20 20 20 19 18 18 17 16 15 15 14 14 13 12 11 10 9 9 10 9 9 8 7 7 7 6 5 4 4 4 4 3 3 3 2 2 1 2 2 3 3 4 5 6 6 7 7
7 8 8 7 7 7 6 7 7 7 8 9 10 11 12 13 13 14 15 15 15 16 16 17 17 17 18 18 18 17 17 18 19 21 22 22 22 22 22 22 21 20 20 19 19 18 17 17 16 16 14 13 12 11 10 9 10 10 9 8 7 7 7 7 7 7 7 7 6 6 6 6 5 5 5 5 5 5 5 6 6 7 7 8 9
9 9 8 6 7 7 7 7 7 7 8 9 10 10 11 12 12 13 13 13 14 14 15 16 16 16 16 16 16 17 17 18 19 20 22 23 23 23 24 23 22 21 21 20 20 19 19 18 18 18 16 15 14 13 11 10 11 10 9 8 8 8 8 8 8 9 9 9 10 10 10 9 9 8 8 8 8 8 8 8 8 8 9 9 10
8 9 8 8 7 7 7 7 6 5 6 7 8 9 9 10 10 11 11 12 12 13 13 13 13 13 14 14 15 16 17 17 17 19 20 22 23 24 24 24 23 22 22 22 21 21 20 20 20 19 18 16 16 15 14 12 11 11 9 8 8 9 10 10 10 11 11 12 12 12 13 12 12 11 11 10 10 10 10 11 11 11 11 11 12
8 8 7 7 6 5 5 4 3 4 5 6 6 7 8 8 8 9 10 10 11 11 12 11 11 12 12 13 14 15 15 15 16 17 19 20 22 24 25 25 24 24 24 23 23 22 22 21 21 21 19 19 18 17 16 14 13 13 12 10 9 10 11 11 12 13 14 14 14 14 15 15 15 14 13 13 12 12 12 13 14 14 14 14 15
10 10 7 6 5 3 3 1 2 4 5 5 4 5 6 7 8 8 9 9 10 11 11 11 11 12 13 13 14 14 14 15 16 16 17 18 20 23 25 26 25 25 25 25 24 24 23 23 22 22 21 21 20 18 17 16 14 14 14 13 12 12 13 13 14 15 16 16 16 16 16 17 17 17 16 16 16 15 14 15 15 16 16 17 17
10 13 14 16 14 8 6 5 5 6 7 6 5 6 6 7 8 9 9 10 11 11 11 12 12 13 14 14 14 14 14 15 15 16 17 18 18 21 24 26 26 26 26 26 25 25 24 24 23 23 23 23 22 20 18 17 16 15 15 15 15 15 15 16 16 16 17 19 21 21 19 17 18 18 19 19 18 17 16 16 16 17 18 18 19
13 15 19 21 19 16 14 13 12 11 11 11 10 10 9 9 10 10 10 10 10 10 10 10 12 13 14 14 14 14 14 15 15 16 17 17 18 19 22 25 26 26 27 27 26 26 25 25 24 25 25 24 23 22 19 18 17 17 16 17 17 17 17 18 18 18 20 21 21 22 23 21 19 20 21 20 20 19 18 18 18 19 20 20 20
12 14 18 20 21 21 19 17 16 15 15 15 15 13 12 11 12 12 11 10 10 10 10 10 11 12 13 13 14 14 15 15 16 16 17 17 18 19 20 23 25 26 27 27 27 27 26 26 26 26 27 25 24 22 20 19 18 18 17 17 18 18 18 18 18 19 20 19 17 17 20 22 22 21 21 20 21 21 20 20 20 21 21 20 19
9 11 14 16 20 22 21 19 17 16 17 18 17 15 14 13 13 13 13 13 13 12 11 12 12 13 13 14 14 15 16 16 16 17 17 17 18 19 19 21 23 25 27 28 28 28 27 27 27 28 28 26 24 22 21 20 19 18 17 17 18 18 17 17 18 19 19 17 13 12 15 17 18 17 18 19 20 21 20 20 19 20 20 19 19
6 8 10 11 14 17 19 20 18 17 17 17 18 17 15 14 14 14 14 15 15 14 14 14 14 14 14 14 15 16 17 17 18 18 18 18 19 20 20 21 22 24 26 28 28 28 28 28 29 29 28 25 23 22 22 21 20 19 17 17 17 17 17 17 18 18 16 14 10 10 11 12 12 13 15 17 19 19 18 18 17 18 18 18 17
5 7 9 9 11 15 18 20 19 17 16 15 17 17 15 15 15 15 15 16 16 16 16 16 15 16 15 15 15 16 17 19 19 19 19 19 20 21 22 22 22 23 24 27 28 29 29 29 29 29 27 24 23 22 21 20 20 19 18 17 17 17 17 17 18 16 14 11 9 8 10 10 10 11 14 16 17 16 16 15 15 16 16 16 16
5 7 9 10 12 15 17 18 17 16 14 13 15 17 16 16 15 15 16 16 17 17 17 17 17 17 16 16 16 17 18 19 20 21 20 20 21 22 23 23 23 23 24 25 27 29 29 28 28 27 25 23 22 22 20 20 19 19 18 17 16 17 17 16 15 14 12 10 9 9 9 9 9 11 12 14 15 14 13 13 14 14 14 14 14
5 7 9 10 13 16 17 17 15 14 12 11 14 18 17 16 16 16 16 16 17 17 17 18 18 18 18 18 18 18 19 20 21 21 21 20 21 22 23 23 23 23 24 24 25 27 27 26 25 25 24 23 22 21 20 19 18 17 17 17 17 17 16 14 13 13 12 11 10 10 9 9 10 11 12 13 13 12 12 12 12 12 12 12 11
5 7 8 10 12 15 19 19 14 13 12 11 15 18 17 15 16 16 16 17 18 18 19 19 19 19 19 20 20 20 20 20 21 22 22 21 21 23 23 22 22 22 22 23 25 25 25 23 23 23 23 21 20 19 18 17 17 16 17 18 18 16 14 12 12 12 11 11 11 10 9 9 10 11 11 11 11 10 10 10 9 9 8 7 6
8 8 7 7 8 8 13 17 14 11 12 12 16 18 17 15 15 16 17 19 19 19 20 20 21 21 21 21 21 21 21 21 21 22 22 22 23 24 23 22 21 21 21 22 23 24 23 21 21 21 20 19 19 17 16 16 16 17 17 17 17 15 13 12 12 10 10 11 11 10 9 9 10 10 10 10 9 8 7 7 6 5 4 4 4
9 8 7 7 6 5 8 12 13 9 10 11 16 18 17 16 15 17 18 19 20 20 20 20 21 21 21 21 21 22 22 22 22 22 23 23 23 22 22 23 22 20 21 21 23 23 21 20 19 18 18 17 18 17 15 15 16 17 17 17 16 15 14 13 12 10 10 11 11 9 8 9 10 9 9 8 7 6 5 4 3 2 3 3 3
8 7 8 8 7 7 10 12 12 9 9 13 16 16 16 15 15 16 17 18 19 19 19 20 21 22 22 21 21 22 24 23 22 22 23 22 23 23 23 23 22 21 21 22 23 22 20 19 18 17 17 17 17 16 16 16 16 17 17 17 16 15 15 15 13 11 10 11 11 9 8 9 9 8 7 6 5 4 4 3 2 1 2 3 3
6 6 7 9 8 8 11 13 12 9 11 13 13 13 13 12 13 14 15 16 17 17 18 19 20 20 21 20 20 22 24 23 20 21 21 20 22 22 23 23 22 20 19 20 21 20 18 18 17 17 17 17 16 15 16 16 17 18 17 16 16 16 16 15 13 12 11 11 11 10 9 9 9 7 5 3 3 2 2 1 1 1 2 2 3
5 5 6 8 9 10 11 10 10 11 11 11 10 11 10 11 11 12 13 14 16 18 18 18 19 19 20 20 19 21 23 20 18 19 18 18 18 17 21 23 21 19 18 19 19 19 19 18 18 18 17 16 16 16 16 17 16 17 16 16 16 16 16 13 12 12 12 12 12 10 10 8 7 5 3 2 2 2 2 1 1 1 2 3 4
6 5 5 7 8 10 11 11 12 11 10 9 9 9 8 10 11 12 13 14 16 18 18 18 19 20 20 19 18 20 21 20 17 15 14 18 18 17 19 21 20 19 19 19 20 20 21 18 16 16 15 15 16 16 16 16 16 15 14 15 16 16 15 13 13 13 13 12 12 10 9 7 5 5 4 3 2 2 2 1 1 2 3 3 4
6 5 5 7 8 10 12 14 14 12 10 9 8 8 9 10 12 12 12 14 16 17 18 18 19 20 19 18 18 18 19 19 16 13 12 15 19 19 21 21 20 20 19 19 19 19 20 19 18 17 16 14 15 15 16 16 16 16 15 16 16 16 15 14 13 14 13 12 11 10 8 7 6 5 4 3 3 2 1 1 2 3 3 4 5
7 6 7 9 10 11 12 14 16 14 11 8 8 9 10 10 11 11 11 13 15 16 18 18 19 19 18 17 17 18 19 18 17 16 14 14 17 20 21 20 19 18 18 19 18 18 20 19 18 18 16 15 14 14 15 16 16 17 16 16 16 16 16 14 13 13 13 12 11 10 8 8 7 6 5 4 3 2 2 3 3 4 4 4 5
8 8 10 11 11 11 10 12 16 16 10 7 9 11 10 11 11 11 11 12 14 15 16 16 17 17 17 16 17 18 19 18 18 18 16 16 17 19 19 18 18 17 17 18 19 18 19 19 18 18 16 16 15 15 15 16 16 16 16 15 15 16 15 14 14 14 14 13 12 11 10 9 9 7 6 5 3 3 3 4 4 4 4 5 5
11 11 11 12 13 13 12 11 14 17 13 10 12 13 13 14 14 14 11 11 12 14 14 14 15 16 17 17 17 17 18 17 17 18 17 17 18 18 17 17 17 16 17 20 20 19 19 19 18 18 18 17 17 16 15 15 15 16 16 16 16 16 15 14 15 15 14 14 13 12 11 11 10 8 7 5 4 4 4 4 3 3 3 4 5
13 13 13 14 15 15 14 12 13 16 17 16 15 17 18 18 17 16 13 11 11 13 15 17 17 18 19 18 17 17 17 17 17 17 17 17 17 17 17 16 16 17 20 21 21 20 19 18 18 18 18 17 17 16 15 15 15 15 15 15 16 16 16 15 14 14 14 13 13 12 12 11 10 9 7 5 4 4 5 4 3 3 3 3 4
15 16 15 15 15 16 17 17 15 18 21 21 20 20 22 21 20 18 14 12 12 13 16 19 19 19 19 19 18 16 17 18 16 16 17 17 17 17 17 15 16 18 20 20 20 20 19 17 17 18 17 16 15 15 14 14 14 14 14 14 15 15 16 14 14 14 13 11 12 12 11 11 10 8 6 5 5 5 5 4 4 3 3 3 3
18 17 16 16 16 18 20 22 23 25 26 25 23 24 25 24 23 21 17 14 14 14 17 19 20 19 19 18 17 17 18 18 17 17 18 18 18 18 16 15 16 18 18 18 19 19 18 16 16 17 16 14 14 15 14 14 14 14 14 14 15 15 15 14 14 15 14 12 12 10 9 9 9 7 6 5 5 5 6 5 4 3 3 3 3
17 15 16 16 18 21 23 26 28 29 28 27 26 26 27 27 26 24 19 16 16 15 16 18 18 18 18 17 16 17 18 18 18 18 18 19 18 16 14 15 17 18 18 18 18 18 16 15 16 17 17 16 16 15 14 14 15 16 15 15 15 15 14 13 13 14 14 13 12 10 9 8 7 7 6 5 5 6 7 6 5 4 3 3 3
16 14 14 16 21 24 24 25 29 30 27 25 25 26 29 30 30 28 23 20 19 17 17 17 17 17 17 16 16 17 18 18 18 18 18 18 16 13 13 15 18 19 18 17 17 17 16 16 17 17 17 17 17 16 15 15 16 16 16 15 16 15 13 12 12 12 12 11 11 11 11 10 9 8 7 6 7 8 8 7 6 5 4 4 4
Wind_Direction
209 211 183 180 183 188 194 197 199 199 200 199 197 196 195 194 192 190 184 179 175 179 188 189 186 160 115 103 98 96 93 91 88 84 82 80 76 68 62 60 59 59 58 58 59 62 64 66 65 71 87 97 105 111 112 113 113 108 110 114 111 107 107 107 112 118 114 107 99 91 86 82 79 76 71 71 72 70 71 73 75 73 74 78 79
220 221 194 181 183 188 193 197 200 201 202 201 200 199 198 197 196 194 188 184 183 187 193 196 193 182 154 128 114 105 99 97 94 89 89 84 80 72 65 63 62 62 60 60 61 63 65 68 68 71 83 96 106 108 108 111 113 113 114 115 111 110 111 106 107 110 106 102 100 95 90 85 82 81 78 77 78 77 80 80 79 80 81 82 80
233 222 203 187 184 189 192 196 200 202 203 202 202 202 202 201 200 199 194 190 189 192 195 199 197 188 169 147 127 114 108 105 103 100 97 89 84 76 68 64 63 63 61 61 62 64 66 69 69 71 80 94 106 105 107 112 115 119 119 113 106 107 106 97 92 93 90 86 86 88 84 82 80 83 87 88 88 84 83 82 82 84 85 84 82
241 223 208 196 189 190 192 195 199 202 204 204 204 204 205 204 204 203 201 198 194 196 197 200 199 191 177 161 143 124 120 117 115 114 108 96 88 80 71 66 65 65 63 61 63 66 66 69 69 71 79 90 105 110 111 113 114 113 109 107 103 100 98 93 93 93 91 88 87 89 87 88 87 89 93 92 89 85 84 84 85 87 87 86 84
238 221 207 200 196 194 192 193 197 202 204 205 205 206 208 207 208 208 207 204 201 201 200 203 199 192 185 174 158 142 137 134 130 127 122 108 94 85 74 68 68 67 65 62 63 66 67 69 70 72 79 88 97 103 105 106 106 102 98 99 100 97 97 99 101 100 99 100 102 103 103 102 98 96 95 92 89 87 86 86 88 89 88 88 88
230 217 205 200 199 198 196 193 194 199 203 205 207 209 210 211 212 213 211 208 206 205 203 205 201 195 194 187 173 161 158 154 146 141 132 118 103 90 78 71 70 69 65 63 64 66 68 70 71 72 78 87 93 96 98 100 101 102 100 99 99 100 104 107 108 106 105 105 105 106 105 103 100 98 95 93 92 90 90 90 91 91 91 91 91
226 217 208 202 200 202 202 197 193 196 201 205 208 211 213 214 216 215 214 212 211 209 207 208 205 200 200 199 190 180 180 174 161 153 141 129 116 101 86 76 73 73 68 65 67 68 70 72 73 74 76 82 88 91 94 98 102 104 104 102 104 108 109 111 110 107 104 102 100 100 100 99 98 97 96 95 94 92 92 92 91 91 91 91 90
228 222 213 206 203 203 206 203 196 194 198 204 208 212 215 217 219 218 216 215 214 212 211 211 209 207 208 207 203 195 193 188 174 164 151 142 130 116 101 86 79 78 73 69 69 70 72 73 74 76 77 80 84 87 90 94 100 103 103 104 107 110 109 106 104 103 101 100 99 98 98 97 96 96 95 95 94 93 93 92 92 91 90 89 88
229 223 216 210 206 203 206 208 201 195 197 203 208 212 216 219 220 220 218 217 217 215 214 214 213 213 214 212 211 205 201 197 185 171 161 156 143 130 119 101 89 85 81 76 73 73 73 74 76 78 79 79 81 85 90 93 96 100 102 103 105 106 105 103 102 102 102 101 100 99 98 97 96 96 95 95 95 94 93 92 91 90 89 87 86
232 224 219 214 209 205 204 209 206 199 198 202 207 212 216 220 221 221 221 221 220 218 217 216 216 217 218 216 216 211 207 203 191 179 172 167 153 141 133 118 104 97 90 84 80 77 76 76 78 81 82 81 81 83 87 92 96 99 101 102 104 104 103 103 103 102 102 102 101 99 98 97 97 96 96 95 95 93 92 90 89 87 86 85 85
237 230 223 218 213 208 204 208 209 204 201 203 207 212 216 219 221 223 225 226 224 221 219 217 217 219 220 219 218 216 212 206 196 186 180 174 163 151 146 139 125 113 102 94 89 83 80 81 82 85 85 84 83 82 84 89 95 98 100 101 102 103 104 104 103 102 102 101 100 99 98 97 97 97 95 94 92 90 89 88 87 86 85 84 84
245 239 231 224 217 212 205 205 208 206 204 205 208 212 216 219 221 224 226 227 225 223 219 217 218 220 221 221 221 219 216 211 200 190 187 182 172 161 157 158 146 131 118 108 101 94 88 87 88 89 89 89 86 84 85 90 97 101 102 103 103 104 104 104 103 102 101 99 98 98 97 97 96 95 93 92 90 89 89 88 87 86 85 84 83
257 247 238 227 220 215 209 205 206 207 206 207 209 213 216 219 221 223 225 225 224 222 219 218 218 220 223 222 223 221 219 216 204 195 193 188 181 171 165 171 166 149 138 125 116 110 103 99 97 94 93 94 93 91 92 96 101 103 104 105 105 106 105 104 104 103 101 99 98 97 96 96 95 94 92 91 90 90 89 88 87 86 84 83 82
259 250 239 225 217 213 210 206 206 208 209 209 210 213 216 219 221 223 223 224 224 223 222 221 221 222 223 222 222 223 221 219 210 201 198 193 187 179 173 180 180 166 157 144 134 131 125 116 107 102 100 99 100 99 100 103 105 104 104 104 105 106 106 105 104 103 101 100 98 97 97 97 96 95 93 92 90 90 88 87 85 84 82 81 79
247 241 231 218 212 211 209 208 209 210 211 211 210 212 216 219 222 224 226 227 226 227 228 227 226 225 224 222 222 224 223 220 215 207 202 198 193 186 181 187 189 179 172 163 154 152 152 141 124 113 109 107 105 106 107 108 109 109 107 106 106 107 106 106 104 103 101 100 99 98 98 97 97 95 94 93 91 90 88 86 84 83 81 79 78
232 225 217 211 207 209 209 210 212 213 213 211 210 213 217 221 225 229 231 231 230 230 231 231 230 228 225 224 223 225 225 222 219 212 205 201 198 193 188 193 196 189 183 178 173 173 173 165 148 129 120 115 112 113 114 111 112 113 112 112 112 111 108 107 106 104 103 102 101 101 100 98 96 95 94 93 92 90 88 86 84 82 80 78 75
228 217 207 205 207 210 212 214 215 212 210 209 209 214 217 223 227 231 234 233 233 233 233 233 232 231 229 227 225 226 227 225 222 215 208 203 201 199 194 197 202 199 192 189 189 188 188 183 171 153 136 126 122 123 122 117 116 119 119 120 120 117 113 111 109 108 107 106 106 104 103 101 98 95 94 92 90 89 87 84 82 79 76 73 70
229 213 201 199 207 213 214 215 215 210 206 207 209 214 219 225 229 233 235 236 237 236 236 235 234 234 232 229 227 228 228 228 225 218 212 207 204 202 199 200 205 207 201 196 199 198 198 196 188 178 159 142 133 134 134 129 126 128 130 128 128 126 122 120 117 116 115 114 113 111 109 106 102 98 94 91 88 84 81 77 73 69 65 61 57
216 203 191 189 202 207 206 202 204 206 205 209 213 220 226 230 234 236 239 240 240 239 237 237 236 235 233 231 229 230 230 229 227 222 217 210 207 204 202 204 207 210 208 204 205 205 205 203 199 195 181 163 150 147 148 145 141 140 141 139 137 136 132 129 127 126 126 124 122 121 118 113 106 100 95 90 84 78 72 66 60 54 48 44 39
202 193 185 185 196 198 194 188 190 202 209 215 223 231 237 239 240 241 242 242 241 239 237 236 236 236 234 233 232 231 231 232 231 227 221 215 212 208 204 206 208 211 213 210 210 210 210 208 206 205 197 183 168 163 162 158 155 153 153 154 153 152 148 141 138 139 137 136 134 132 129 123 115 106 96 86 77 67 57 48 41 35 28 24 19
202 192 189 189 193 193 185 178 184 199 210 217 226 235 240 242 243 244 245 243 241 240 238 236 237 237 236 236 235 234 234 235 235 231 227 221 217 212 208 209 210 212 215 215 214 214 214 214 212 212 207 198 186 178 177 173 169 167 168 172 171 169 170 165 160 164 167 163 159 157 155 148 139 127 105 78 51 31 18 11 7 5 2 359 357
204 197 194 192 187 182 171 171 184 198 207 216 225 232 236 239 242 244 245 244 243 242 241 239 238 238 238 238 238 238 236 236 236 233 231 227 222 217 212 212 213 213 215 217 218 217 218 219 219 219 215 208 199 192 193 193 190 187 187 189 190 189 190 190 194 203 214 218 219 219 221 222 224 227 248 275 295 313 321 328 333 336 337 337 338
180 192 194 186 171 165 166 179 190 199 207 215 223 229 234 238 240 243 244 244 244 244 243 241 240 241 240 239 239 239 238 235 233 232 230 228 225 222 217 215 215 216 217 219 220 220 220 222 224 226 223 216 209 205 207 209 209 205 202 207 214 217 217 219 225 229 234 241 245 246 249 254 258 259 264 271 277 285 293 302 310 316 320 323 325
167 170 173 163 154 160 169 184 197 204 213 221 227 232 236 240 241 243 243 243 243 244 244 244 243 243 243 242 240 239 238 236 232 231 230 228 227 225 222 218 217 218 219 221 221 221 222 223 226 230 229 225 218 214 214 217 221 220 214 216 226 235 240 243 249 252 252 251 254 256 258 261 263 266 268 272 278 283 289 294 298 304 309 313 316
168 154 149 143 139 153 170 181 196 214 229 233 234 234 237 243 245 244 243 241 241 242 244 245 245 244 244 244 240 238 237 235 234 232 231 230 227 226 224 221 219 220 221 222 222 222 223 224 227 231 232 231 226 221 220 221 225 228 226 223 229 239 243 246 255 261 260 257 256 258 261 263 264 266 268 271 276 283 289 294 298 302 305 309 313
164 157 137 131 124 123 149 167 190 220 233 233 236 236 234 236 240 242 241 239 238 239 242 243 243 243 244 243 240 237 235 234 233 232 231 230 228 225 224 222 219 220 222 223 222 222 223 225 228 231 233 234 232 228 226 226 227 229 232 233 235 243 247 250 257 261 260 257 256 256 259 262 264 266 267 269 271 276 283 289 294 299 303 307 310
172 182 180 199 201 140 117 138 234 230 231 231 239 242 236 230 229 232 233 233 232 233 236 239 238 239 240 239 239 237 236 235 233 234 234 232 229 225 224 222 220 220 223 224 223 223 223 225 229 232 234 236 237 233 230 232 234 235 238 241 243 247 253 257 260 262 261 261 259 257 255 257 261 264 268 270 271 272 277 282 287 292 297 302 304
202 209 217 227 229 221 218 249 273 268 261 256 254 253 250 243 235 231 229 227 228 230 233 236 237 238 239 238 239 239 238 236 235 235 235 234 231 227 224 222 221 219 222 225 225 224 223 224 228 232 235 237 240 239 235 235 239 242 244 248 251 254 260 264 265 266 268 272 269 260 253 253 256 261 266 270 272 272 275 279 283 287 292 296 299
212 212 218 224 227 227 228 239 257 264 263 259 254 254 255 253 248 243 236 231 228 230 232 236 241 243 244 244 242 242 241 239 236 234 234 235 233 230 226 223 221 220 222 225 226 226 225 225 228 232 235 238 242 243 242 241 243 246 249 253 258 262 267 270 271 272 275 280 279 263 252 251 256 262 264 267 270 272 275 278 281 285 289 292 295
210 210 218 223 225 229 232 237 241 246 253 254 251 249 250 252 252 247 244 241 238 235 233 237 243 246 247 246 245 243 241 239 236 234 233 234 234 231 228 225 223 222 223 225 227 228 228 227 229 232 236 238 243 246 248 248 249 251 254 258 262 266 270 272 274 277 280 284 287 271 255 253 258 261 260 261 266 270 274 278 281 285 287 289 291
227 224 230 234 231 230 227 224 224 234 247 251 251 247 244 247 249 247 246 247 247 245 242 244 246 247 247 245 245 244 241 238 235 232 229 229 231 230 227 226 224 224 224 225 227 228 229 229 230 233 235 238 243 248 251 253 255 257 258 260 264 268 269 272 277 281 283 285 284 270 256 252 254 255 256 260 265 270 274 278 282 284 285 286 287
256 241 243 245 234 221 211 208 212 224 238 248 252 247 240 241 247 248 246 247 249 250 252 253 253 251 249 247 245 244 242 239 235 231 226 225 227 228 227 227 225 225 226 226 227 228 229 230 232 234 237 240 244 248 252 255 258 261 261 262 264 267 270 275 282 284 285 286 279 261 254 253 253 258 262 265 268 271 276 280 283 284 284 286 288
261 253 252 235 214 204 200 205 210 214 225 239 250 250 242 238 243 247 247 248 250 252 254 256 257 257 255 252 248 245 243 240 235 230 227 226 226 227 227 227 226 225 226 226 228 229 229 230 234 237 240 243 246 249 252 254 258 262 265 264 264 267 272 278 282 282 283 287 281 264 260 261 264 269 270 271 271 273 277 280 282 283 286 289 293
241 251 250 223 203 199 198 205 210 210 211 220 241 249 243 235 238 244 247 248 249 250 253 254 256 258 257 255 251 246 242 238 234 230 230 231 229 228 228 228 226 225 226 227 229 232 232 232 235 239 242 245 247 249 250 253 256 260 262 262 265 270 272 275 275 276 281 285 280 270 266 269 274 276 274 272 272 275 277 279 281 284 288 293 297
239 237 238 228 214 211 215 217 206 198 191 199 232 243 238 234 235 239 242 242 244 246 249 252 254 254 255 255 254 248 241 236 234 233 235 235 233 230 229 230 229 227 226 226 227 232 235 235 237 240 242 244 246 247 248 251 252 253 256 259 267 271 267 267 267 270 279 281 272 265 268 274 277 275 272 271 272 275 277 279 283 287 292 296 301
240 234 240 240 228 226 233 227 205 190 177 185 227 238 233 231 231 235 237 237 239 242 246 250 251 251 253 254 253 247 241 236 235 236 236 236 234 231 227 228 228 228 226 225 225 228 231 233 234 235 237 239 242 244 245 246 247 248 252 258 266 268 260 255 256 262 273 271 263 263 271 277 275 273 273 274 274 276 280 282 286 290 295 303 313
244 248 257 251 231 218 221 220 214 199 172 185 225 235 230 226 226 232 236 237 239 243 248 250 250 251 252 253 251 244 238 236 236 237 237 236 234 229 225 224 222 223 226 227 228 227 228 229 230 231 232 234 236 236 237 239 244 248 252 258 263 263 255 245 243 251 261 261 258 264 273 276 273 272 275 277 276 279 282 283 285 292 303 318 329
261 260 253 244 224 192 188 207 215 191 169 202 226 228 227 225 224 231 237 241 244 248 252 253 253 253 251 249 247 242 237 235 235 237 238 238 237 231 225 225 221 220 225 228 230 231 229 225 223 225 225 226 227 225 227 234 242 247 251 255 258 258 250 239 237 245 252 252 254 262 268 272 271 271 273 274 275 277 278 276 279 297 319 335 345
277 269 242 231 223 196 186 207 212 184 189 220 223 221 225 225 225 230 238 245 250 255 257 257 257 254 249 247 245 244 241 237 234 236 238 238 239 234 227 228 224 220 224 227 229 230 228 219 213 215 216 217 220 222 228 236 244 248 249 251 252 252 245 236 236 241 246 247 249 257 264 266 268 268 268 269 270 269 267 267 281 319 342 350 354
280 265 237 225 223 208 200 210 208 191 208 224 223 222 224 224 227 232 239 248 255 259 259 257 257 254 251 249 248 250 248 243 235 234 237 235 237 233 226 225 219 218 224 227 231 226 218 215 210 211 213 215 222 228 237 245 249 247 243 246 248 248 243 239 238 238 241 243 244 251 259 261 262 262 260 256 256 253 245 252 283 337 347 346 346
296 273 245 218 212 212 208 208 203 202 218 229 230 228 226 227 230 235 242 249 254 257 256 253 252 252 252 252 253 255 256 253 243 235 235 232 231 225 221 220 215 218 223 226 231 219 208 213 212 212 214 218 227 234 242 248 247 241 238 243 246 245 242 236 233 235 236 238 242 250 255 256 255 248 233 216 217 209 210 233 278 320 326 331 340
326 301 252 215 209 216 216 207 202 208 222 237 245 241 238 237 237 240 244 248 253 256 255 250 247 245 247 248 252 257 261 263 256 245 239 230 224 213 212 218 220 225 226 224 227 214 204 210 212 215 219 225 235 239 243 244 240 238 237 240 243 243 239 230 227 230 232 236 241 245 247 244 235 222 208 202 203 186 183 219 273 307 323 333 340
325 305 257 244 244 237 230 218 213 219 226 238 258 257 248 245 244 244 248 254 256 258 256 250 245 242 243 245 249 256 258 261 258 250 243 231 223 215 216 226 228 229 227 222 221 211 205 208 215 224 229 233 242 245 244 242 239 239 236 237 239 236 232 230 231 228 226 231 234 237 239 228 214 211 204 198 201 196 205 246 281 311 327 333 335
294 281 254 250 248 235 234 232 225 224 230 246 257 251 246 247 251 252 255 260 260 260 260 257 252 248 248 251 254 256 251 250 249 242 236 234 231 226 228 233 229 226 224 215 211 210 209 212 220 231 235 238 243 243 243 243 242 242 239 238 238 234 230 229 232 228 224 228 231 235 233 218 207 207 204 207 215 230 263 283 293 315 324 328 333
254 251 244 245 244 237 249 254 235 219 219 245 246 243 250 255 267 276 270 266 266 267 268 267 265 259 257 258 257 256 249 243 240 234 232 237 234 226 226 227 219 217 215 206 204 208 212 216 223 232 238 239 238 236 238 239 242 242 238 236 235 236 235 229 228 229 228 230 234 237 228 213 207 202 205 218 231 251 270 284 293 311 321 325 333
242 240 241 242 240 241 254 263 245 228 223 231 237 244 252 255 268 279 273 263 262 265 267 264 262 258 255 252 249 250 249 242 233 229 233 237 231 220 216 214 207 206 204 201 204 208 212 220 227 234 237 236 234 235 236 234 236 238 236 233 232 233 231 225 226 231 232 229 229 230 221 211 207 200 206 225 237 255 266 272 282 296 311 321 326
259 249 246 242 239 242 248 248 241 234 230 231 236 245 248 250 262 271 268 265 259 256 259 256 252 251 250 247 242 239 237 235 228 227 232 232 225 214 206 201 198 199 199 199 203 208 214 224 230 233 232 230 232 235 236 232 231 234 236 235 234 232 229 225 224 227 234 233 227 223 217 216 217 206 205 222 234 250 258 260 269 280 298 312 317
268 259 255 249 245 245 245 242 231 224 229 234 239 244 245 248 257 262 263 266 259 249 253 255 252 250 249 247 243 234 229 227 224 225 227 223 218 210 204 201 198 200 201 201 206 212 215 222 228 229 228 229 232 232 232 230 229 233 237 236 232 231 231 228 223 219 220 227 231 228 222 224 231 222 210 218 234 251 255 255 263 272 290 303 309
263 265 262 252 247 245 244 243 231 223 227 233 239 243 244 247 252 254 255 257 251 244 249 254 253 251 250 249 245 235 227 224 220 220 222 218 214 211 208 206 204 207 210 210 214 217 214 216 223 227 228 229 230 230 230 230 231 234 236 233 226 226 228 226 222 215 206 207 219 229 232 235 243 239 226 228 243 255 254 254 260 268 283 293 301
263 270 267 263 265 262 254 247 243 242 239 234 238 242 242 245 250 251 251 253 250 245 248 253 253 252 251 249 247 239 229 222 217 216 217 216 214 212 210 211 213 217 219 219 222 222 216 217 224 227 228 227 226 226 227 230 232 233 234 231 224 220 222 226 226 222 215 207 203 209 223 235 242 232 223 239 257 256 252 253 260 269 282 286 293
266 268 267 275 280 273 264 256 257 264 257 241 237 237 239 244 249 250 248 246 245 242 245 250 249 249 250 249 246 240 230 221 217 214 214 216 215 212 209 212 218 220 220 221 223 223 221 223 229 230 228 227 227 225 223 227 232 234 234 232 224 215 212 221 229 229 228 220 207 205 212 217 219 216 220 244 257 256 258 264 272 279 284 283 289